Wind_Speed
22 20 20 21 20 21 22 21 20 20 21 21 20 20 19 19 19 18 17 17 17 16 16 16 16 16 15 15 15 14 14 14 14 14 13 13 13 13 13 13 12 12 12 11
22 21 20 21 22 23 23 23 22 22 22 22 21 21 20 19 19 18 18 18 18 17 17 17 18 17 16 15 15 15 15 15 15 15 14 14 14 14 14 14 13 13 13 12
23 23 23 22 21 22 22 23 23 23 23 24 23 23 22 20 20 20 19 19 19 18 18 18 18 17 17 17 16 16 16 16 15 15 14 14 15 15 15 14 14 14 15 15
24 24 25 22 22 23 23 24 24 24 25 25 24 23 23 22 22 21 21 20 20 19 18 18 18 18 17 17 18 17 17 16 16 16 16 15 16 16 15 15 15 15 16 16
25 25 25 24 23 24 24 24 24 24 25 25 25 24 23 23 23 23 22 22 21 20 20 19 19 19 18 18 19 19 18 17 17 17 17 17 17 17 17 17 17 17 17 17
26 26 26 24 24 25 26 26 24 25 25 25 25 25 25 24 24 23 23 23 22 21 21 20 20 20 20 20 20 20 20 19 19 19 19 18 18 19 19 19 19 19 18 18
28 29 29 27 26 27 28 27 26 27 27 27 27 27 26 25 25 25 24 24 23 23 22 21 21 22 21 21 21 21 21 20 20 20 20 20 20 20 20 21 20 20 19 19
29 30 30 28 28 29 29 28 28 28 28 28 28 28 27 26 26 26 25 24 24 24 23 22 22 23 23 22 22 22 22 23 22 21 21 21 21 20 20 21 21 21 21 21
29 29 29 28 29 30 30 29 29 30 29 29 29 29 28 27 26 26 26 25 25 25 24 23 23 24 24 24 24 24 24 24 24 23 22 22 22 22 22 22 22 22 23 23
29 29 30 30 30 30 30 31 30 30 29 29 29 29 28 28 27 27 26 25 25 25 25 25 25 24 25 25 25 25 25 25 24 24 24 23 23 23 23 23 23 23 24 24
28 29 30 30 31 31 30 29 29 29 29 29 29 29 28 28 28 27 27 27 26 26 26 26 26 26 25 25 26 26 26 26 25 25 25 25 25 25 25 25 25 25 25 26
27 28 29 29 28 29 29 28 28 28 28 28 28 28 28 28 28 28 28 28 28 27 27 27 28 27 27 27 26 27 27 27 27 26 26 26 27 27 27 27 27 27 27 28
27 27 28 27 27 28 28 28 28 27 27 26 27 27 28 28 29 29 29 29 29 29 29 28 28 28 28 27 27 28 28 28 28 28 28 28 28 29 29 29 29 30 30 30
26 26 27 27 27 28 27 27 27 27 26 27 27 27 28 28 29 29 29 30 30 30 30 29 29 28 28 28 28 28 28 29 29 29 29 30 30 30 30 30 31 31 32 31
27 27 27 27 27 27 27 27 27 27 27 27 27 28 28 29 29 29 30 30 30 30 30 30 29 29 28 28 29 29 29 30 30 30 31 31 31 31 31 32 32 32 32 33
28 28 28 28 28 28 27 28 28 28 28 27 28 28 28 29 29 30 30 30 30 29 29 29 29 28 28 28 29 29 30 30 31 31 32 33 33 33 33 33 33 33 33 34
28 28 29 29 29 29 29 29 29 29 29 28 27 28 28 28 28 29 29 29 29 29 29 29 29 29 29 29 29 30 30 31 31 32 33 33 34 34 34 34 35 35 35 35
28 28 28 29 29 29 29 29 29 29 29 28 27 27 28 28 28 28 28 29 29 29 29 29 29 29 30 30 30 31 31 31 32 33 33 34 34 34 34 34 35 36 36 36
28 28 28 29 29 29 29 29 29 29 29 28 28 28 28 28 28 28 28 29 29 29 28 28 29 30 30 31 31 32 32 33 33 33 34 35 35 34 35 35 35 36 36 36
28 28 28 28 28 28 28 29 29 28 28 29 29 29 28 28 28 28 29 29 29 29 29 29 29 30 31 32 32 32 33 33 33 34 34 35 35 35 35 35 36 36 36 36
28 28 28 28 28 28 28 28 28 27 28 28 29 29 29 29 29 29 29 29 29 29 29 29 30 30 31 32 32 33 33 33 33 34 35 35 35 35 35 36 36 36 37 37
28 28 28 29 29 28 28 28 28 28 28 29 29 29 30 29 29 29 29 29 29 29 30 31 32 32 32 32 32 33 33 34 34 34 35 35 35 35 36 36 37 37 37 37
28 29 29 29 29 28 29 29 29 29 29 29 30 30 30 30 30 30 30 29 29 30 30 31 32 32 33 33 33 33 33 33 34 34 34 35 35 35 36 36 37 38 38 38
30 30 30 30 30 30 30 29 29 29 29 29 29 29 29 30 30 30 30 31 31 31 31 31 31 32 32 33 33 33 33 33 33 34 34 35 35 35 36 36 37 37 38 38
29 30 30 30 30 30 30 30 30 30 29 29 29 29 30 30 29 29 29 29 30 31 31 31 32 32 32 32 32 32 33 33 33 34 35 35 34 34 35 36 36 37 38 38
28 28 28 29 29 30 30 30 30 30 30 30 29 30 29 29 28 28 28 28 30 31 31 31 31 31 31 32 32 33 33 34 34 35 35 34 34 34 35 36 37 38 38 39
29 29 29 29 29 29 30 30 30 31 31 30 30 30 30 29 29 29 30 30 30 30 31 31 31 31 32 32 33 33 33 34 34 35 35 35 36 36 36 37 38 38 39 40
Wind_Direction
246 250 251 251 250 248 249 250 253 255 259 264 267 271 274 275 277 278 277 279 280 281 278 277 279 281 282 284 282 283 281 278 279 279 279 281 282 280 281 284 290 293 294 294
246 249 249 252 252 252 252 252 257 259 259 262 263 268 271 273 274 276 276 276 277 278 276 276 277 279 278 278 279 279 281 280 278 277 276 277 280 281 281 282 285 288 291 292
250 252 250 252 255 254 253 253 257 261 263 265 265 267 268 269 271 275 276 275 275 275 275 275 275 277 278 277 278 279 278 279 278 275 274 274 275 278 278 280 283 286 287 289
251 252 254 255 258 258 257 256 259 262 265 267 268 268 268 268 270 271 273 273 272 273 273 273 273 273 276 277 277 279 277 277 276 274 273 273 274 274 273 277 281 284 284 286
253 255 257 257 260 261 260 260 260 263 266 267 267 268 269 269 270 272 273 273 273 273 272 270 270 270 273 273 275 279 278 277 276 276 275 276 277 276 275 276 279 281 283 285
253 256 258 259 262 263 263 262 261 264 266 268 268 269 270 269 269 270 270 272 271 273 272 269 268 268 269 270 271 275 277 276 276 276 276 276 276 276 275 276 277 277 279 282
253 255 258 260 263 264 263 264 264 264 266 268 270 270 269 269 269 270 270 271 271 271 271 269 267 267 268 269 270 271 273 274 276 276 275 275 275 275 274 274 274 274 276 278
254 255 257 261 263 264 265 265 265 264 265 267 268 269 268 268 269 269 270 271 271 271 270 269 267 267 268 270 271 270 271 273 274 275 276 277 277 277 276 275 274 274 275 277
254 255 258 260 262 264 265 265 265 265 265 266 267 267 267 267 268 268 269 270 270 270 269 269 269 268 268 269 270 270 270 272 273 273 274 275 276 276 276 276 275 275 275 276
255 256 258 261 262 264 266 265 265 264 265 265 265 265 265 266 267 267 268 269 270 270 269 269 269 270 268 269 270 271 270 270 271 272 273 274 275 276 277 278 277 276 276 276
258 258 260 262 264 265 264 265 265 265 265 265 265 264 264 264 265 265 266 268 270 270 270 270 270 270 270 270 269 270 269 269 269 271 273 274 275 276 277 278 278 278 277 277
260 260 261 262 263 265 265 264 263 263 264 264 264 264 264 264 264 265 266 268 269 269 269 270 269 269 270 270 270 269 269 268 268 270 273 276 275 275 276 278 278 277 277 278
260 260 261 262 262 263 264 264 262 262 263 263 264 265 265 264 264 265 266 268 268 268 269 269 269 268 269 270 270 269 268 269 269 270 273 276 277 276 277 278 279 279 279 279
260 261 260 260 261 262 263 262 262 263 264 265 264 264 265 265 266 266 267 268 268 269 269 268 268 267 268 269 270 269 269 269 270 272 274 276 277 277 278 279 279 279 279 278
260 260 259 258 258 260 261 262 263 264 266 267 266 266 268 268 268 267 268 267 268 268 268 267 266 265 266 268 269 269 270 270 271 272 274 276 277 278 279 279 279 278 277 277
259 258 257 258 258 258 259 261 264 265 266 268 270 270 270 270 268 267 267 267 267 268 268 267 265 265 265 268 269 270 270 271 272 273 274 275 276 278 278 279 279 278 277 277
258 257 258 258 259 258 259 261 263 265 267 269 271 271 270 269 268 267 267 268 268 268 269 268 267 266 266 268 269 270 272 273 274 275 275 275 276 277 277 277 278 279 278 278
258 258 259 259 260 260 261 263 264 266 267 267 268 270 270 269 268 267 266 268 268 268 269 268 267 266 267 268 269 271 272 274 276 276 276 277 276 276 276 278 278 278 277 277
256 258 259 261 262 263 263 263 264 265 266 266 266 268 269 268 268 267 267 267 269 269 268 268 267 267 268 268 270 271 272 274 275 277 278 278 277 277 277 278 279 278 278 278
259 259 261 262 263 264 265 265 265 266 266 266 266 267 268 268 267 267 268 268 268 269 268 268 268 269 270 271 272 273 274 275 276 278 278 278 278 278 277 277 278 279 280 280
260 261 262 262 264 265 266 266 266 265 265 266 267 268 268 268 268 268 268 268 267 268 269 269 269 270 271 271 272 272 273 275 276 278 278 278 277 277 277 278 279 280 281 281
262 262 262 263 265 266 266 266 265 265 265 267 268 268 269 269 268 268 269 269 268 268 270 270 271 272 272 272 272 273 275 277 278 278 278 278 279 279 279 279 280 282 282 282
262 263 263 263 266 267 267 267 266 266 267 268 269 269 270 270 269 269 270 270 270 271 272 272 272 272 272 273 273 274 276 278 279 279 280 280 281 281 281 281 282 282 282 283
261 262 263 263 265 266 267 267 266 267 268 268 269 269 270 270 269 269 270 270 270 272 272 273 273 272 272 273 274 275 276 278 280 280 281 282 283 283 284 284 284 284 284 284
262 262 263 264 265 266 266 265 265 266 267 268 268 269 270 271 271 271 270 271 271 272 272 273 273 273 273 273 275 277 279 280 281 283 285 285 284 285 286 286 286 286 286 286
263 263 263 264 266 266 265 266 266 266 267 267 267 269 269 270 271 272 271 273 275 275 274 274 274 274 275 276 278 279 280 281 282 283 284 285 286 286 287 287 287 287 287 287
263 264 264 266 268 268 267 267 267 267 267 267 268 268 269 269 270 271 272 274 275 276 277 276 276 277 277 278 280 280 281 281 282 283 284 285 286 286 287 287 288 288 288 288
Height
5809 5810 5812 5814 5815 5816 5818 5819 5820 5821 5822 5823 5823 5823 5823 5823 5823 5823 5823 5823 5823 5823 5822 5822 5822 5822 5822 5822 5821 5821 5821 5821 5821 5821 5821 5821 5821 5821 5821 5821 5821 5821 5820 5820
5803 5805 5806 5808 5810 5811 5812 5813 5814 5816 5817 5817 5818 5818 5818 5818 5818 5818 5818 5818 5818 5818 5818 5818 5818 5818 5818 5818 5817 5817 5817 5817 5817 5817 5818 5818 5818 5818 5818 5818 5818 5817 5817 5817
5798 5799 5800 5803 5805 5805 5806 5808 5809 5810 5812 5811 5812 5812 5813 5813 5813 5813 5813 5813 5813 5813 5813 5813 5813 5813 5813 5813 5813 5813 5813 5813 5813 5813 5813 5814 5814 5814 5814 5814 5814 5814 5813 5813
5792 5794 5795 5800 5799 5799 5801 5802 5803 5803 5805 5805 5806 5807 5807 5807 5807 5808 5808 5807 5808 5808 5808 5808 5808 5808 5809 5809 5809 5809 5809 5809 5809 5809 5809 5809 5809 5809 5810 5810 5810 5810 5809 5809
5786 5787 5788 5792 5792 5793 5794 5796 5797 5797 5798 5799 5799 5800 5801 5801 5801 5802 5802 5802 5802 5802 5802 5802 5803 5803 5803 5804 5804 5803 5804 5804 5804 5804 5804 5804 5805 5805 5805 5805 5805 5805 5805 5804
5780 5781 5782 5785 5787 5787 5788 5789 5791 5791 5791 5792 5792 5793 5795 5795 5795 5795 5796 5796 5796 5796 5796 5797 5797 5797 5798 5798 5798 5798 5798 5798 5799 5799 5799 5799 5799 5799 5800 5800 5800 5800 5800 5800
5773 5773 5775 5778 5779 5780 5782 5783 5783 5783 5784 5785 5785 5786 5787 5787 5788 5789 5789 5790 5790 5790 5790 5790 5791 5791 5792 5792 5792 5792 5792 5793 5793 5793 5793 5794 5794 5794 5794 5794 5794 5795 5795 5795
5766 5767 5771 5771 5772 5773 5774 5774 5775 5776 5776 5777 5778 5778 5779 5780 5781 5782 5782 5783 5783 5783 5784 5784 5784 5785 5785 5786 5786 5786 5786 5787 5787 5787 5787 5787 5788 5788 5788 5788 5788 5788 5789 5788
5760 5762 5762 5763 5764 5764 5765 5766 5767 5768 5769 5769 5770 5770 5771 5772 5773 5774 5775 5775 5775 5776 5777 5777 5777 5778 5778 5779 5779 5779 5779 5780 5780 5780 5781 5781 5781 5781 5782 5781 5782 5782 5782 5782
5751 5753 5754 5754 5755 5756 5757 5757 5758 5759 5760 5760 5761 5762 5763 5764 5765 5766 5767 5767 5768 5768 5769 5770 5770 5770 5771 5771 5771 5772 5772 5772 5773 5773 5774 5774 5774 5775 5775 5775 5775 5775 5775 5775
5743 5745 5746 5747 5747 5748 5748 5749 5750 5750 5751 5752 5753 5754 5755 5756 5757 5758 5758 5759 5760 5760 5761 5762 5762 5763 5763 5763 5764 5764 5765 5765 5766 5766 5767 5767 5767 5767 5767 5767 5767 5767 5767 5767
5736 5737 5738 5739 5739 5739 5740 5740 5741 5741 5742 5743 5744 5745 5746 5748 5749 5750 5750 5751 5751 5752 5752 5753 5754 5754 5755 5755 5755 5756 5757 5757 5758 5759 5759 5759 5760 5760 5759 5759 5759 5759 5759 5759
5728 5729 5730 5731 5731 5732 5732 5732 5732 5733 5734 5735 5736 5737 5738 5739 5740 5741 5741 5742 5742 5743 5744 5744 5745 5745 5746 5746 5747 5747 5748 5749 5750 5750 5751 5751 5751 5751 5751 5751 5751 5750 5750 5750
5720 5721 5722 5723 5723 5724 5724 5724 5725 5725 5726 5727 5728 5729 5729 5730 5731 5732 5732 5733 5733 5733 5734 5735 5736 5737 5737 5738 5738 5739 5740 5740 5741 5742 5742 5742 5742 5742 5742 5742 5742 5741 5740 5740
5713 5713 5713 5714 5715 5716 5716 5717 5717 5718 5719 5719 5720 5720 5721 5721 5722 5722 5723 5723 5723 5724 5724 5725 5726 5727 5728 5729 5729 5730 5731 5731 5732 5733 5733 5733 5733 5732 5732 5732 5731 5731 5730 5729
5704 5704 5705 5706 5707 5708 5709 5709 5710 5710 5711 5711 5711 5712 5712 5713 5713 5713 5713 5714 5714 5714 5715 5715 5717 5718 5719 5720 5720 5721 5721 5722 5723 5723 5723 5723 5722 5722 5722 5721 5720 5720 5719 5719
5695 5696 5697 5698 5699 5700 5700 5701 5702 5702 5703 5703 5703 5703 5704 5704 5704 5704 5704 5705 5705 5706 5706 5707 5708 5709 5710 5710 5711 5712 5712 5713 5713 5712 5712 5712 5712 5711 5710 5710 5710 5709 5708 5707
5687 5688 5689 5689 5690 5691 5692 5693 5694 5694 5695 5695 5695 5695 5695 5695 5696 5696 5696 5696 5697 5697 5697 5698 5699 5699 5700 5701 5702 5702 5703 5703 5702 5702 5702 5701 5701 5700 5699 5699 5698 5698 5697 5696
5679 5680 5681 5681 5682 5683 5684 5684 5685 5686 5686 5687 5687 5687 5687 5687 5687 5687 5687 5687 5688 5688 5688 5689 5689 5690 5691 5692 5692 5692 5693 5693 5692 5692 5691 5690 5690 5689 5689 5688 5687 5686 5685 5684
5671 5672 5673 5674 5674 5675 5675 5676 5677 5677 5678 5678 5678 5678 5678 5678 5678 5678 5678 5679 5679 5679 5679 5679 5680 5681 5681 5682 5682 5682 5682 5682 5682 5681 5680 5680 5679 5679 5678 5677 5676 5675 5674 5673
5663 5664 5665 5666 5666 5667 5667 5667 5668 5668 5669 5669 5669 5669 5669 5669 5669 5669 5669 5669 5670 5670 5670 5670 5671 5671 5671 5671 5672 5672 5672 5672 5671 5670 5670 5669 5668 5667 5667 5666 5665 5664 5663 5661
5654 5655 5656 5657 5658 5658 5658 5659 5659 5659 5660 5660 5660 5660 5660 5660 5660 5660 5660 5661 5661 5660 5661 5661 5661 5661 5661 5661 5661 5661 5661 5661 5660 5659 5658 5657 5657 5656 5655 5654 5653 5652 5651 5649
5645 5646 5647 5648 5649 5650 5650 5650 5651 5651 5651 5651 5651 5651 5651 5651 5651 5651 5652 5652 5651 5651 5651 5651 5651 5650 5650 5651 5651 5651 5651 5650 5649 5648 5647 5646 5645 5644 5643 5642 5641 5640 5639 5637
5636 5637 5638 5639 5640 5641 5641 5641 5642 5642 5642 5642 5642 5642 5642 5642 5642 5642 5642 5642 5642 5642 5641 5641 5641 5640 5640 5640 5640 5640 5640 5639 5638 5637 5636 5635 5634 5633 5632 5630 5629 5628 5626 5625
5628 5628 5629 5630 5631 5631 5632 5632 5632 5633 5633 5633 5633 5633 5633 5633 5633 5633 5633 5633 5632 5632 5631 5631 5631 5630 5630 5630 5630 5629 5629 5628 5627 5626 5625 5624 5622 5621 5620 5618 5617 5615 5614 5612
5619 5619 5620 5621 5621 5622 5622 5622 5623 5623 5623 5624 5624 5624 5624 5624 5623 5623 5623 5623 5623 5623 5622 5622 5621 5620 5620 5620 5620 5619 5618 5617 5616 5615 5614 5612 5611 5609 5608 5606 5605 5603 5601 5599
5610 5611 5611 5612 5612 5612 5612 5612 5613 5613 5613 5614 5614 5614 5614 5614 5614 5614 5614 5614 5613 5613 5612 5612 5611 5611 5610 5610 5609 5608 5607 5606 5605 5604 5602 5601 5599 5598 5596 5594 5592 5590 5588 5585